Regional Weather Roundup
Issued by NWS Portland, ME

Home | Current Version | Previous Version | Text Only | Print | Product List | Glossary On
Versions: 1 2 3 4 5 6 7 8 9 10 11 12 13 14 15 16 17 18 19 20 21 22 23 24 25 26 27 28 29 30 31 32 33 34 35 36 37 38 39 40 41 42 43 44 45 46 47 48 49 50
000
ASUS41 KGYX 300905
RWRGYX
WEATHER ROUNDUP FOR MAINE AND NEW HAMPSHIRE
NATIONAL WEATHER SERVICE GRAY ME
500 AM EDT SUN AUG 30 2015

MEZ002-005-006-010-012-015-018-020-021-024-026-027-029-301000-
MAINE

CITY           SKY/WX    TMP DP  RH WIND       PRES   REMARKS
PORTLAND       CLOUDY    63  61  93 CALM      30.03S
SANFORD        MOCLDY    59  54  82 CALM      30.04S
BAR HARBOR     CLOUDY    61  61 100 CALM      30.03S
WISCASSET      CLOUDY    61  59  93 CALM      30.04S
ROCKLAND       CLOUDY    63  61  94 W3        30.02R
FRYEBURG       CLOUDY    59  59 100 W3        30.05S
LEWISTONAUBURN CLOUDY    61 N/A N/A CALM      30.03F
AUGUSTA        CLOUDY    63  61  93 CALM      30.03F
WATERVILLE     CLOUDY    63  57  82 CALM      30.00F
BANGOR         CLOUDY    62  59  90 CALM      30.03S
GREENVILLE       N/A     59  55  87 CALM      30.02S
MILLINOCKET    CLOUDY    61  59  93 CALM      30.01S
HOULTON        CLOUDY    61  57  87 SW3       29.98S
PRESQUE ISLE   CLOUDY    61  55  82 SW6       29.96F
FRENCHVILLE    CLOUDY    60  57  89 S7        29.94F
CARIBOU        CLOUDY    61  58  90 S6        29.95F
$$

NHZ002-005-008-009-011-012-014-301000-
NEW HAMPSHIRE

CITY           SKY/WX    TMP DP  RH WIND       PRES   REMARKS
PORTSMOUTH     MOCLDY    64  59  82 SW3       30.03S
ROCHESTER      MOCLDY    63  58  83 CALM      30.04S
NASHUA         PTCLDY    60  58  92 CALM      30.06S
MANCHESTER     MOCLDY    63  56  78 CALM      30.04S
CONCORD        PTCLDY    59  57  93 CALM      30.05S
LACONIA        PTCLDY    63  57  82 CALM      30.04F
PLYMOUTH       FAIR      58  57  97 CALM      30.05S FOG
BERLIN         CLOUDY    57  55  93 CALM      30.07S
WHITEFIELD     CLOUDY    59  56  89 CALM      30.08S
JAFFREY        CLEAR     57  56  96 CALM      30.09F
KEENE          CLOUDY    57  52  82 CALM      30.08S VSB 1/4
LEBANON        PTCLDY    60  57  89 CALM      30.06S
MT WASHINGTON  MOCLDY    45  39  81 W23         N/A
$$

VTZ005-007-008-301000-
VERMONT

CITY           SKY/WX    TMP DP  RH WIND       PRES   REMARKS
ST JOHNSBURY     N/A     61  58  90 MISG      30.05F
MONTPELIER     CLOUDY    60  57  89 CALM      30.11S
BURLINGTON     MOCLDY    64  59  83 CALM      30.05S
$$

MAZ007-012-024-CTZ003-RIZ002-NYZ038-NYZ072-301000-
SOUTHERN NEW ENGLAND AND NY

CITY           SKY/WX    TMP DP  RH WIND       PRES   REMARKS
BOSTON         MOCLDY    70  61  73 SW10      30.05F
WORCESTER      CLEAR     61  58  90 SW10      30.09S
NANTUCKET      MOCLDY    67  64  90 SW6       30.09F
PROVIDENCE     CLEAR     67  63  87 SW6       30.08S
HARTFORD       CLEAR     65  61  87 S5        30.06S
ALBANY         MOCLDY    62  58  86 CALM      30.07S
NEW YORK CITY  MOCLDY    73  61  65 SW7       30.08R
$$

ANZ081-ANZ082-ANZ150-NHZ014-MEZ023>029-301000-
COASTAL MARINE OBSERVATIONS

STATION/POSITION TIME  TEMP    WIND        PRES    WAVE
                       AIR SEA DIR/SP/G            HT/PER
                 (UTC) (F)     (DEG/KT/KT) (MB)    (FT/S)
MOUNT DESERT ROC 0800   60     230/ 11/ 12 1017.1F
MATINICUS ROCK   0800   62     290/  8/  8 1016.6F
ISLE OF SHOALS   0800   67     250/  9/ 10 1016.8F
JEFFREYS LEDGE   0803      69                N/A     3/10
CASHES LEDGE BUO 0850   69                 1017.0S   3/11
GEORGES BANK BUO 0750   71 69  310/  4/  4 1019.3    3/10
$$

.............KEY..............
   WCI - WIND CHILL
   TC  - TEMPERATURE IN CELSIUS
   VSB - VISIBILITY IN MILES
   HX  - HEAT INDEX
   FAIR- INDICATES FEW OR NO CLOUDS BELOW 12,000 FT, WITH NO
         SIGNIFICANT WEATHER AND/OR OBSTRUCTIONS TO VISIBILITY.





USA.gov is the U.S. government's official web portal to all federal, state and local government web resources and services.